Tracking 29892 objects as of 21-Nov-2024
HD Live streaming from Space Station
objects crossing your sky now

RIGIDSPHERE 2 (LCS 4)

Track RIGIDSPHERE 2 (LCS 4) now!
10-day predictions
RIGIDSPHERE 2 (LCS 4) is classified as:


NORAD ID: 5398
Int'l Code: 1971-067E
Perigee: 734.2 km
Apogee: 820.2 km
Inclination: 87.6 °
Period: 100.2 minutes
Semi major axis: 7148 km
RCS: 0.9311 m2 (medium)
Launch date: August 7, 1971
Source: United States (US)
Launch site: AIR FORCE WESTERN TEST RANGE (AFWTR)
Your satellite tracking list
Your tracking list is empty




NASA's NSSDC Master Catalog

Two Line Element Set (TLE):
1 05398U 71067E   24325.88204462  .00001395  00000-0  46009-3 0  9996
2 05398  87.6213 137.9510 0060168 335.5147  24.3195 14.36499839791534
Source of the keplerian elements: AFSPC